owner,sensor,date,latitude,longitude,vertical_datum,sea_water_practical_salinity,qcFlag 
ENP,ioos.station.NOAA.NDBC:LBRF1:1,2011-07-01T00:00:00Z,25.4840,-81.1330,1.5,29.1,11111222 
ENP,ioos.station.NOAA.NDBC:LBRF1:1,2011-07-01T01:00:00Z,25.4840,-81.1330,1.5,27.6,11111222 
ENP,ioos.station.NOAA.NDBC:LBRF1:1,2011-07-01T02:00:00Z,25.4840,-81.1330,1.5,27.3,11111222 
ENP,ioos.station.NOAA.NDBC:LBRF1:1,2011-07-01T03:00:00Z,25.4840,-81.1330,1.5,27.3,11111222 
ENP,ioos.station.NOAA.NDBC:LBRF1:1,2011-07-01T04:00:00Z,25.4840,-81.1330,1.5,27.3,11111222 
ENP,ioos.station.NOAA.NDBC:LBRF1:1,2011-07-01T05:00:00Z,25.4840,-81.1330,1.5,27.3,11111222 
ENP,ioos.station.NOAA.NDBC:LBRF1:1,2011-07-01T06:00:00Z,25.4840,-81.1330,1.5,27.4,11111222 
ENP,ioos.station.NOAA.NDBC:LBRF1:1,2011-07-01T07:00:00Z,25.4840,-81.1330,1.5,29.3,11111222 
ENP,ioos.station.NOAA.NDBC:LBRF1:1,2011-07-01T08:00:00Z,25.4840,-81.1330,1.5,30.6,11111222 
ENP,ioos.station.NOAA.NDBC:LBRF1:1,2011-07-01T09:00:00Z,25.4840,-81.1330,1.5,30.9,11111222 
ENP,ioos.station.NOAA.NDBC:LBRF1:1,2011-07-01T10:00:00Z,25.4840,-81.1330,1.5,30.5,11111222 
ENP,ioos.station.NOAA.NDBC:LBRF1:1,2011-07-01T11:00:00Z,25.4840,-81.1330,1.5,29.0,11111222 
ENP,ioos.station.NOAA.NDBC:LBRF1:1,2011-07-01T12:00:00Z,25.4840,-81.1330,1.5,27.5,11111222 
ENP,ioos.station.NOAA.NDBC:LBRF1:1,2011-07-01T13:00:00Z,25.4840,-81.1330,1.5,27.2,11111222 
ENP,ioos.station.NOAA.NDBC:LBRF1:1,2011-07-01T14:00:00Z,25.4840,-81.1330,1.5,27.1,11111222 
ENP,ioos.station.NOAA.NDBC:LBRF1:1,2011-07-01T15:00:00Z,25.4840,-81.1330,1.5,27.1,11111222 
ENP,ioos.station.NOAA.NDBC:LBRF1:1,2011-07-01T16:00:00Z,25.4840,-81.1330,1.5,27.3,11111222 
ENP,ioos.station.NOAA.NDBC:LBRF1:1,2011-07-01T17:00:00Z,25.4840,-81.1330,1.5,29.8,11111222 
ENP,ioos.station.NOAA.NDBC:LBRF1:1,2011-07-01T18:00:00Z,25.4840,-81.1330,1.5,31.1,11111222 
ENP,ioos.station.NOAA.NDBC:LBRF1:1,2011-07-01T19:00:00Z,25.4840,-81.1330,1.5,32.5,11111222 
ENP,ioos.station.NOAA.NDBC:LBRF1:1,2011-07-01T20:00:00Z,25.4840,-81.1330,1.5,33.3,11111222 
ENP,ioos.station.NOAA.NDBC:LBRF1:1,2011-07-01T21:00:00Z,25.4840,-81.1330,1.5,33.3,11111222 
ENP,ioos.station.NOAA.NDBC:LBRF1:1,2011-07-01T22:00:00Z,25.4840,-81.1330,1.5,32.9,11111222 
ENP,ioos.station.NOAA.NDBC:LBRF1:1,2011-07-01T23:00:00Z,25.4840,-81.1330,1.5,31.8,11111222 
ENP,ioos.station.NOAA.NDBC:LBRF1:1,2011-07-02T00:00:00Z,25.4840,-81.1330,1.5,30.8,11111222 
ENP,ioos.station.NOAA.NDBC:LBRF1:1,2011-07-02T01:00:00Z,25.4840,-81.1330,1.5,29.7,11111222 
ENP,ioos.station.NOAA.NDBC:LBRF1:1,2011-07-02T02:00:00Z,25.4840,-81.1330,1.5,28.0,11111222 
ENP,ioos.station.NOAA.NDBC:LBRF1:1,2011-07-02T03:00:00Z,25.4840,-81.1330,1.5,27.3,11111222 
ENP,ioos.station.NOAA.NDBC:LBRF1:1,2011-07-02T04:00:00Z,25.4840,-81.1330,1.5,27.0,11111222 
ENP,ioos.station.NOAA.NDBC:LBRF1:1,2011-07-02T05:00:00Z,25.4840,-81.1330,1.5,27.0,11111222 
ENP,ioos.station.NOAA.NDBC:LBRF1:1,2011-07-02T06:00:00Z,25.4840,-81.1330,1.5,27.3,11111222 
ENP,ioos.station.NOAA.NDBC:LBRF1:1,2011-07-02T07:00:00Z,25.4840,-81.1330,1.5,28.9,11111222 
ENP,ioos.station.NOAA.NDBC:LBRF1:1,2011-07-02T08:00:00Z,25.4840,-81.1330,1.5,31.2,11111222 
ENP,ioos.station.NOAA.NDBC:LBRF1:1,2011-07-02T09:00:00Z,25.4840,-81.1330,1.5,31.4,11111222 
ENP,ioos.station.NOAA.NDBC:LBRF1:1,2011-07-02T10:00:00Z,25.4840,-81.1330,1.5,31.6,11111222 
ENP,ioos.station.NOAA.NDBC:LBRF1:1,2011-07-02T11:00:00Z,25.4840,-81.1330,1.5,30.9,11111222 
ENP,ioos.station.NOAA.NDBC:LBRF1:1,2011-07-02T12:00:00Z,25.4840,-81.1330,1.5,29.6,11111222 
ENP,ioos.station.NOAA.NDBC:LBRF1:1,2011-07-02T13:00:00Z,25.4840,-81.1330,1.5,22.8,11111222 
ENP,ioos.station.NOAA.NDBC:LBRF1:1,2011-07-02T14:00:00Z,25.4840,-81.1330,1.5,26.9,11111222 
ENP,ioos.station.NOAA.NDBC:LBRF1:1,2011-07-02T15:00:00Z,25.4840,-81.1330,1.5,26.7,11111222 
ENP,ioos.station.NOAA.NDBC:LBRF1:1,2011-07-02T16:00:00Z,25.4840,-81.1330,1.5,26.8,11111222 
ENP,ioos.station.NOAA.NDBC:LBRF1:1,2011-07-02T17:00:00Z,25.4840,-81.1330,1.5,27.7,11111222 
ENP,ioos.station.NOAA.NDBC:LBRF1:1,2011-07-02T18:00:00Z,25.4840,-81.1330,1.5,30.4,11111222 
ENP,ioos.station.NOAA.NDBC:LBRF1:1,2011-07-02T19:00:00Z,25.4840,-81.1330,1.5,31.2,11111222 
ENP,ioos.station.NOAA.NDBC:LBRF1:1,2011-07-02T20:00:00Z,25.4840,-81.1330,1.5,31.9,11111222 
ENP,ioos.station.NOAA.NDBC:LBRF1:1,2011-07-02T21:00:00Z,25.4840,-81.1330,1.5,32.2,11111222 
ENP,ioos.station.NOAA.NDBC:LBRF1:1,2011-07-02T22:00:00Z,25.4840,-81.1330,1.5,31.7,11111222 
ENP,ioos.station.NOAA.NDBC:LBRF1:1,2011-07-02T23:00:00Z,25.4840,-81.1330,1.5,30.9,11111222 
ENP,ioos.station.NOAA.NDBC:LBRF1:1,2011-07-03T00:00:00Z,25.4840,-81.1330,1.5,30.1,11111222 
ENP,ioos.station.NOAA.NDBC:LBRF1:1,2011-07-03T01:00:00Z,25.4840,-81.1330,1.5,29.1,11111222 
ENP,ioos.station.NOAA.NDBC:LBRF1:1,2011-07-03T02:00:00Z,25.4840,-81.1330,1.5,26.9,11111222 
ENP,ioos.station.NOAA.NDBC:LBRF1:1,2011-07-03T03:00:00Z,25.4840,-81.1330,1.5,26.3,11111222 
ENP,ioos.station.NOAA.NDBC:LBRF1:1,2011-07-03T04:00:00Z,25.4840,-81.1330,1.5,25.9,11111222 
ENP,ioos.station.NOAA.NDBC:LBRF1:1,2011-07-03T05:00:00Z,25.4840,-81.1330,1.5,25.6,11111222 
ENP,ioos.station.NOAA.NDBC:LBRF1:1,2011-07-03T06:00:00Z,25.4840,-81.1330,1.5,25.7,11111222 
ENP,ioos.station.NOAA.NDBC:LBRF1:1,2011-07-03T07:00:00Z,25.4840,-81.1330,1.5,26.1,11111222 
ENP,ioos.station.NOAA.NDBC:LBRF1:1,2011-07-03T08:00:00Z,25.4840,-81.1330,1.5,29.1,11111222 
ENP,ioos.station.NOAA.NDBC:LBRF1:1,2011-07-03T09:00:00Z,25.4840,-81.1330,1.5,29.9,11111222 
ENP,ioos.station.NOAA.NDBC:LBRF1:1,2011-07-03T10:00:00Z,25.4840,-81.1330,1.5,29.9,11111222 
ENP,ioos.station.NOAA.NDBC:LBRF1:1,2011-07-03T11:00:00Z,25.4840,-81.1330,1.5,29.8,11111222 
ENP,ioos.station.NOAA.NDBC:LBRF1:1,2011-07-03T12:00:00Z,25.4840,-81.1330,1.5,29.1,11111222 
ENP,ioos.station.NOAA.NDBC:LBRF1:1,2011-07-03T13:00:00Z,25.4840,-81.1330,1.5,27.0,11111222 
ENP,ioos.station.NOAA.NDBC:LBRF1:1,2011-07-03T14:00:00Z,25.4840,-81.1330,1.5,26.0,11111222 
ENP,ioos.station.NOAA.NDBC:LBRF1:1,2011-07-03T15:00:00Z,25.4840,-81.1330,1.5,25.6,11111222 
ENP,ioos.station.NOAA.NDBC:LBRF1:1,2011-07-03T16:00:00Z,25.4840,-81.1330,1.5,25.6,11111222 
ENP,ioos.station.NOAA.NDBC:LBRF1:1,2011-07-03T17:00:00Z,25.4840,-81.1330,1.5,25.7,11111222 
ENP,ioos.station.NOAA.NDBC:LBRF1:1,2011-07-03T18:00:00Z,25.4840,-81.1330,1.5,26.3,11111222 
ENP,ioos.station.NOAA.NDBC:LBRF1:1,2011-07-03T19:00:00Z,25.4840,-81.1330,1.5,29.4,11111222 
ENP,ioos.station.NOAA.NDBC:LBRF1:1,2011-07-03T20:00:00Z,25.4840,-81.1330,1.5,30.9,11111222 
ENP,ioos.station.NOAA.NDBC:LBRF1:1,2011-07-03T21:00:00Z,25.4840,-81.1330,1.5,30.6,11111222 
ENP,ioos.station.NOAA.NDBC:LBRF1:1,2011-07-03T22:00:00Z,25.4840,-81.1330,1.5,32.1,11111222 
ENP,ioos.station.NOAA.NDBC:LBRF1:1,2011-07-03T23:00:00Z,25.4840,-81.1330,1.5,31.9,11111222 
ENP,ioos.station.NOAA.NDBC:LBRF1:1,2011-07-04T00:00:00Z,25.4840,-81.1330,1.5,30.9,11111222 
ENP,ioos.station.NOAA.NDBC:LBRF1:1,2011-07-04T01:00:00Z,25.4840,-81.1330,1.5,29.9,11111222 
ENP,ioos.station.NOAA.NDBC:LBRF1:1,2011-07-04T02:00:00Z,25.4840,-81.1330,1.5,28.9,11111222 
ENP,ioos.station.NOAA.NDBC:LBRF1:1,2011-07-04T03:00:00Z,25.4840,-81.1330,1.5,26.8,11111222 
ENP,ioos.station.NOAA.NDBC:LBRF1:1,2011-07-04T04:00:00Z,25.4840,-81.1330,1.5,25.7,11111222 
ENP,ioos.station.NOAA.NDBC:LBRF1:1,2011-07-04T05:00:00Z,25.4840,-81.1330,1.5,25.1,11111222 
ENP,ioos.station.NOAA.NDBC:LBRF1:1,2011-07-04T06:00:00Z,25.4840,-81.1330,1.5,24.9,11111222 
ENP,ioos.station.NOAA.NDBC:LBRF1:1,2011-07-04T07:00:00Z,25.4840,-81.1330,1.5,29.4,11111222 
ENP,ioos.station.NOAA.NDBC:LBRF1:1,2011-07-04T08:00:00Z,25.4840,-81.1330,1.5,26.6,11111222 
ENP,ioos.station.NOAA.NDBC:LBRF1:1,2011-07-04T09:00:00Z,25.4840,-81.1330,1.5,29.9,11111222 
ENP,ioos.station.NOAA.NDBC:LBRF1:1,2011-07-04T10:00:00Z,25.4840,-81.1330,1.5,30.5,11111222 
ENP,ioos.station.NOAA.NDBC:LBRF1:1,2011-07-04T11:00:00Z,25.4840,-81.1330,1.5,30.6,11111222 
ENP,ioos.station.NOAA.NDBC:LBRF1:1,2011-07-04T12:00:00Z,25.4840,-81.1330,1.5,30.4,11111222 
ENP,ioos.station.NOAA.NDBC:LBRF1:1,2011-07-04T13:00:00Z,25.4840,-81.1330,1.5,29.6,11111222 
ENP,ioos.station.NOAA.NDBC:LBRF1:1,2011-07-04T14:00:00Z,25.4840,-81.1330,1.5,27.8,11111222 
ENP,ioos.station.NOAA.NDBC:LBRF1:1,2011-07-04T15:00:00Z,25.4840,-81.1330,1.5,25.9,11111222 
ENP,ioos.station.NOAA.NDBC:LBRF1:1,2011-07-04T16:00:00Z,25.4840,-81.1330,1.5,25.4,11111222 
ENP,ioos.station.NOAA.NDBC:LBRF1:1,2011-07-04T17:00:00Z,25.4840,-81.1330,1.5,25.1,11111222 
ENP,ioos.station.NOAA.NDBC:LBRF1:1,2011-07-04T18:00:00Z,25.4840,-81.1330,1.5,25.6,11111222 
ENP,ioos.station.NOAA.NDBC:LBRF1:1,2011-07-04T19:00:00Z,25.4840,-81.1330,1.5,27.5,11111222 
ENP,ioos.station.NOAA.NDBC:LBRF1:1,2011-07-04T20:00:00Z,25.4840,-81.1330,1.5,30.1,11111222 
ENP,ioos.station.NOAA.NDBC:LBRF1:1,2011-07-04T21:00:00Z,25.4840,-81.1330,1.5,30.9,11111222 
ENP,ioos.station.NOAA.NDBC:LBRF1:1,2011-07-04T22:00:00Z,25.4840,-81.1330,1.5,31.7,11111222 
ENP,ioos.station.NOAA.NDBC:LBRF1:1,2011-07-04T23:00:00Z,25.4840,-81.1330,1.5,31.9,11111222 
ENP,ioos.station.NOAA.NDBC:LBRF1:1,2011-07-05T00:00:00Z,25.4840,-81.1330,1.5,31.4,11111222 
ENP,ioos.station.NOAA.NDBC:LBRF1:1,2011-07-05T01:00:00Z,25.4840,-81.1330,1.5,30.5,11111222 
ENP,ioos.station.NOAA.NDBC:LBRF1:1,2011-07-05T02:00:00Z,25.4840,-81.1330,1.5,29.8,11111222 
ENP,ioos.station.NOAA.NDBC:LBRF1:1,2011-07-05T03:00:00Z,25.4840,-81.1330,1.5,27.9,11111222 
ENP,ioos.station.NOAA.NDBC:LBRF1:1,2011-07-05T04:00:00Z,25.4840,-81.1330,1.5,25.6,11111222 
ENP,ioos.station.NOAA.NDBC:LBRF1:1,2011-07-05T05:00:00Z,25.4840,-81.1330,1.5,24.8,11111222 
ENP,ioos.station.NOAA.NDBC:LBRF1:1,2011-07-05T06:00:00Z,25.4840,-81.1330,1.5,24.4,11111222 
ENP,ioos.station.NOAA.NDBC:LBRF1:1,2011-07-05T07:00:00Z,25.4840,-81.1330,1.5,24.3,11111222 
ENP,ioos.station.NOAA.NDBC:LBRF1:1,2011-07-05T08:00:00Z,25.4840,-81.1330,1.5,24.9,11111222 
ENP,ioos.station.NOAA.NDBC:LBRF1:1,2011-07-05T10:00:00Z,25.4840,-81.1330,1.5,30.4,11111222 
ENP,ioos.station.NOAA.NDBC:LBRF1:1,2011-07-05T11:00:00Z,25.4840,-81.1330,1.5,30.7,11111222 
ENP,ioos.station.NOAA.NDBC:LBRF1:1,2011-07-05T12:00:00Z,25.4840,-81.1330,1.5,30.6,11111222 
ENP,ioos.station.NOAA.NDBC:LBRF1:1,2011-07-05T13:00:00Z,25.4840,-81.1330,1.5,30.1,11111222 
ENP,ioos.station.NOAA.NDBC:LBRF1:1,2011-07-05T14:00:00Z,25.4840,-81.1330,1.5,28.0,11111222 
ENP,ioos.station.NOAA.NDBC:LBRF1:1,2011-07-05T15:00:00Z,25.4840,-81.1330,1.5,25.9,11111222 
ENP,ioos.station.NOAA.NDBC:LBRF1:1,2011-07-05T16:00:00Z,25.4840,-81.1330,1.5,24.8,11111222 
ENP,ioos.station.NOAA.NDBC:LBRF1:1,2011-07-05T17:00:00Z,25.4840,-81.1330,1.5,23.7,11111222 
ENP,ioos.station.NOAA.NDBC:LBRF1:1,2011-07-05T18:00:00Z,25.4840,-81.1330,1.5,23.5,11111222 
ENP,ioos.station.NOAA.NDBC:LBRF1:1,2011-07-05T19:00:00Z,25.4840,-81.1330,1.5,24.3,11111222 
ENP,ioos.station.NOAA.NDBC:LBRF1:1,2011-07-05T20:00:00Z,25.4840,-81.1330,1.5,26.6,11111222 
ENP,ioos.station.NOAA.NDBC:LBRF1:1,2011-07-05T21:00:00Z,25.4840,-81.1330,1.5,29.6,11111222 
ENP,ioos.station.NOAA.NDBC:LBRF1:1,2011-07-05T22:00:00Z,25.4840,-81.1330,1.5,30.5,11111222 
ENP,ioos.station.NOAA.NDBC:LBRF1:1,2011-07-05T23:00:00Z,25.4840,-81.1330,1.5,31.3,11111222 
ENP,ioos.station.NOAA.NDBC:LBRF1:1,2011-07-06T00:00:00Z,25.4840,-81.1330,1.5,31.4,11111222 
ENP,ioos.station.NOAA.NDBC:LBRF1:1,2011-07-06T01:00:00Z,25.4840,-81.1330,1.5,30.9,11111222 
ENP,ioos.station.NOAA.NDBC:LBRF1:1,2011-07-06T02:00:00Z,25.4840,-81.1330,1.5,30.1,11111222 
ENP,ioos.station.NOAA.NDBC:LBRF1:1,2011-07-06T03:00:00Z,25.4840,-81.1330,1.5,30.4,11111222 
ENP,ioos.station.NOAA.NDBC:LBRF1:1,2011-07-06T04:00:00Z,25.4840,-81.1330,1.5,28.0,11111222 
ENP,ioos.station.NOAA.NDBC:LBRF1:1,2011-07-06T05:00:00Z,25.4840,-81.1330,1.5,25.0,11111222 
ENP,ioos.station.NOAA.NDBC:LBRF1:1,2011-07-06T06:00:00Z,25.4840,-81.1330,1.5,24.0,11111222 
ENP,ioos.station.NOAA.NDBC:LBRF1:1,2011-07-06T07:00:00Z,25.4840,-81.1330,1.5,23.7,11111222 
ENP,ioos.station.NOAA.NDBC:LBRF1:1,2011-07-06T08:00:00Z,25.4840,-81.1330,1.5,24.0,11111222 
ENP,ioos.station.NOAA.NDBC:LBRF1:1,2011-07-06T09:00:00Z,25.4840,-81.1330,1.5,26.5,11111222 
ENP,ioos.station.NOAA.NDBC:LBRF1:1,2011-07-06T10:00:00Z,25.4840,-81.1330,1.5,29.8,11111222 
ENP,ioos.station.NOAA.NDBC:LBRF1:1,2011-07-06T11:00:00Z,25.4840,-81.1330,1.5,31.3,11111222 
ENP,ioos.station.NOAA.NDBC:LBRF1:1,2011-07-06T12:00:00Z,25.4840,-81.1330,1.5,30.6,11111222 
ENP,ioos.station.NOAA.NDBC:LBRF1:1,2011-07-06T13:00:00Z,25.4840,-81.1330,1.5,30.7,11111222 
ENP,ioos.station.NOAA.NDBC:LBRF1:1,2011-07-06T14:00:00Z,25.4840,-81.1330,1.5,30.6,11111222 
ENP,ioos.station.NOAA.NDBC:LBRF1:1,2011-07-06T15:00:00Z,25.4840,-81.1330,1.5,29.6,11111222 
ENP,ioos.station.NOAA.NDBC:LBRF1:1,2011-07-06T16:00:00Z,25.4840,-81.1330,1.5,27.8,11111222 
ENP,ioos.station.NOAA.NDBC:LBRF1:1,2011-07-06T17:00:00Z,25.4840,-81.1330,1.5,24.7,11111222 
ENP,ioos.station.NOAA.NDBC:LBRF1:1,2011-07-06T18:00:00Z,25.4840,-81.1330,1.5,23.3,11111222 
ENP,ioos.station.NOAA.NDBC:LBRF1:1,2011-07-06T19:00:00Z,25.4840,-81.1330,1.5,22.9,11111222 
ENP,ioos.station.NOAA.NDBC:LBRF1:1,2011-07-06T20:00:00Z,25.4840,-81.1330,1.5,23.0,11111222 
ENP,ioos.station.NOAA.NDBC:LBRF1:1,2011-07-06T21:00:00Z,25.4840,-81.1330,1.5,24.8,11111222 
ENP,ioos.station.NOAA.NDBC:LBRF1:1,2011-07-06T22:00:00Z,25.4840,-81.1330,1.5,27.6,11111222 
ENP,ioos.station.NOAA.NDBC:LBRF1:1,2011-07-06T23:00:00Z,25.4840,-81.1330,1.5,29.3,11111222 
ENP,ioos.station.NOAA.NDBC:LBRF1:1,2011-07-07T00:00:00Z,25.4840,-81.1330,1.5,29.6,11111222 
ENP,ioos.station.NOAA.NDBC:LBRF1:1,2011-07-07T02:00:00Z,25.4840,-81.1330,1.5,29.0,11111222 
ENP,ioos.station.NOAA.NDBC:LBRF1:1,2011-07-07T04:00:00Z,25.4840,-81.1330,1.5,24.6,11111222 
ENP,ioos.station.NOAA.NDBC:LBRF1:1,2011-07-07T05:00:00Z,25.4840,-81.1330,1.5,22.9,11111222 
ENP,ioos.station.NOAA.NDBC:LBRF1:1,2011-07-07T06:00:00Z,25.4840,-81.1330,1.5,22.1,11111222 
ENP,ioos.station.NOAA.NDBC:LBRF1:1,2011-07-07T07:00:00Z,25.4840,-81.1330,1.5,21.8,11111222 
ENP,ioos.station.NOAA.NDBC:LBRF1:1,2011-07-07T08:00:00Z,25.4840,-81.1330,1.5,21.9,11111222 
ENP,ioos.station.NOAA.NDBC:LBRF1:1,2011-07-07T09:00:00Z,25.4840,-81.1330,1.5,22.9,11111222 
ENP,ioos.station.NOAA.NDBC:LBRF1:1,2011-07-07T10:00:00Z,25.4840,-81.1330,1.5,27.2,11111222 
ENP,ioos.station.NOAA.NDBC:LBRF1:1,2011-07-07T11:00:00Z,25.4840,-81.1330,1.5,29.1,11111222 
ENP,ioos.station.NOAA.NDBC:LBRF1:1,2011-07-07T12:00:00Z,25.4840,-81.1330,1.5,30.1,11111222 
ENP,ioos.station.NOAA.NDBC:LBRF1:1,2011-07-07T13:00:00Z,25.4840,-81.1330,1.5,30.5,11111222 
ENP,ioos.station.NOAA.NDBC:LBRF1:1,2011-07-07T14:00:00Z,25.4840,-81.1330,1.5,30.1,11111222 
ENP,ioos.station.NOAA.NDBC:LBRF1:1,2011-07-07T15:00:00Z,25.4840,-81.1330,1.5,28.1,11111222 
ENP,ioos.station.NOAA.NDBC:LBRF1:1,2011-07-07T16:00:00Z,25.4840,-81.1330,1.5,27.8,11111222 
ENP,ioos.station.NOAA.NDBC:LBRF1:1,2011-07-07T17:00:00Z,25.4840,-81.1330,1.5,27.1,11111222 
ENP,ioos.station.NOAA.NDBC:LBRF1:1,2011-07-07T18:00:00Z,25.4840,-81.1330,1.5,24.6,11111222 
ENP,ioos.station.NOAA.NDBC:LBRF1:1,2011-07-07T19:00:00Z,25.4840,-81.1330,1.5,22.2,11111222 
ENP,ioos.station.NOAA.NDBC:LBRF1:1,2011-07-07T20:00:00Z,25.4840,-81.1330,1.5,21.6,11111222 
ENP,ioos.station.NOAA.NDBC:LBRF1:1,2011-07-07T21:00:00Z,25.4840,-81.1330,1.5,21.7,11111222 
ENP,ioos.station.NOAA.NDBC:LBRF1:1,2011-07-07T22:00:00Z,25.4840,-81.1330,1.5,22.8,11111222 
ENP,ioos.station.NOAA.NDBC:LBRF1:1,2011-07-07T23:00:00Z,25.4840,-81.1330,1.5,26.3,11111222 
ENP,ioos.station.NOAA.NDBC:LBRF1:1,2011-07-08T00:00:00Z,25.4840,-81.1330,1.5,27.3,11111222 
ENP,ioos.station.NOAA.NDBC:LBRF1:1,2011-07-08T01:00:00Z,25.4840,-81.1330,1.5,28.1,11111222 
ENP,ioos.station.NOAA.NDBC:LBRF1:1,2011-07-08T02:00:00Z,25.4840,-81.1330,1.5,28.1,11111222 
ENP,ioos.station.NOAA.NDBC:LBRF1:1,2011-07-08T03:00:00Z,25.4840,-81.1330,1.5,27.5,11111222 
ENP,ioos.station.NOAA.NDBC:LBRF1:1,2011-07-08T04:00:00Z,25.4840,-81.1330,1.5,26.1,11111222 
ENP,ioos.station.NOAA.NDBC:LBRF1:1,2011-07-08T05:00:00Z,25.4840,-81.1330,1.5,25.3,11111222 
ENP,ioos.station.NOAA.NDBC:LBRF1:1,2011-07-08T06:00:00Z,25.4840,-81.1330,1.5,24.0,11111222 
ENP,ioos.station.NOAA.NDBC:LBRF1:1,2011-07-08T07:00:00Z,25.4840,-81.1330,1.5,21.9,11111222 
ENP,ioos.station.NOAA.NDBC:LBRF1:1,2011-07-08T08:00:00Z,25.4840,-81.1330,1.5,21.2,11111222 
ENP,ioos.station.NOAA.NDBC:LBRF1:1,2011-07-08T09:00:00Z,25.4840,-81.1330,1.5,21.5,11111222 
ENP,ioos.station.NOAA.NDBC:LBRF1:1,2011-07-08T10:00:00Z,25.4840,-81.1330,1.5,23.1,11111222 
ENP,ioos.station.NOAA.NDBC:LBRF1:1,2011-07-08T11:00:00Z,25.4840,-81.1330,1.5,24.8,11111222 
ENP,ioos.station.NOAA.NDBC:LBRF1:1,2011-07-08T12:00:00Z,25.4840,-81.1330,1.5,26.1,11111222 
ENP,ioos.station.NOAA.NDBC:LBRF1:1,2011-07-08T13:00:00Z,25.4840,-81.1330,1.5,27.5,11111222 
ENP,ioos.station.NOAA.NDBC:LBRF1:1,2011-07-08T14:00:00Z,25.4840,-81.1330,1.5,27.8,11111222 
ENP,ioos.station.NOAA.NDBC:LBRF1:1,2011-07-08T15:00:00Z,25.4840,-81.1330,1.5,27.1,11111222 
ENP,ioos.station.NOAA.NDBC:LBRF1:1,2011-07-08T16:00:00Z,25.4840,-81.1330,1.5,25.6,11111222 
ENP,ioos.station.NOAA.NDBC:LBRF1:1,2011-07-08T17:00:00Z,25.4840,-81.1330,1.5,24.4,11111222 
ENP,ioos.station.NOAA.NDBC:LBRF1:1,2011-07-08T18:00:00Z,25.4840,-81.1330,1.5,22.8,11111222 
ENP,ioos.station.NOAA.NDBC:LBRF1:1,2011-07-08T19:00:00Z,25.4840,-81.1330,1.5,21.1,11111222 
ENP,ioos.station.NOAA.NDBC:LBRF1:1,2011-07-08T20:00:00Z,25.4840,-81.1330,1.5,20.3,11111222 
ENP,ioos.station.NOAA.NDBC:LBRF1:1,2011-07-08T21:00:00Z,25.4840,-81.1330,1.5,20.1,11111222 
ENP,ioos.station.NOAA.NDBC:LBRF1:1,2011-07-08T22:00:00Z,25.4840,-81.1330,1.5,20.0,11111222 
ENP,ioos.station.NOAA.NDBC:LBRF1:1,2011-07-08T23:00:00Z,25.4840,-81.1330,1.5,20.1,11111222 
ENP,ioos.station.NOAA.NDBC:LBRF1:1,2011-07-09T00:00:00Z,25.4840,-81.1330,1.5,20.3,11111222 
ENP,ioos.station.NOAA.NDBC:LBRF1:1,2011-07-09T01:00:00Z,25.4840,-81.1330,1.5,20.6,11111222 
ENP,ioos.station.NOAA.NDBC:LBRF1:1,2011-07-09T02:00:00Z,25.4840,-81.1330,1.5,22.4,11111222 
ENP,ioos.station.NOAA.NDBC:LBRF1:1,2011-07-09T03:00:00Z,25.4840,-81.1330,1.5,22.9,11111222 
ENP,ioos.station.NOAA.NDBC:LBRF1:1,2011-07-09T04:00:00Z,25.4840,-81.1330,1.5,21.4,11111222 
ENP,ioos.station.NOAA.NDBC:LBRF1:1,2011-07-09T05:00:00Z,25.4840,-81.1330,1.5,20.1,11111222 
ENP,ioos.station.NOAA.NDBC:LBRF1:1,2011-07-09T06:00:00Z,25.4840,-81.1330,1.5,20.0,11111222 
ENP,ioos.station.NOAA.NDBC:LBRF1:1,2011-07-09T07:00:00Z,25.4840,-81.1330,1.5,19.7,11111222 
ENP,ioos.station.NOAA.NDBC:LBRF1:1,2011-07-09T08:00:00Z,25.4840,-81.1330,1.5,19.4,11111222 
ENP,ioos.station.NOAA.NDBC:LBRF1:1,2011-07-09T09:00:00Z,25.4840,-81.1330,1.5,19.2,11111222 
ENP,ioos.station.NOAA.NDBC:LBRF1:1,2011-07-09T10:00:00Z,25.4840,-81.1330,1.5,19.3,11111222 
ENP,ioos.station.NOAA.NDBC:LBRF1:1,2011-07-09T11:00:00Z,25.4840,-81.1330,1.5,19.7,11111222 
ENP,ioos.station.NOAA.NDBC:LBRF1:1,2011-07-09T12:00:00Z,25.4840,-81.1330,1.5,20.1,11111222 
ENP,ioos.station.NOAA.NDBC:LBRF1:1,2011-07-09T13:00:00Z,25.4840,-81.1330,1.5,23.5,11111222 
ENP,ioos.station.NOAA.NDBC:LBRF1:1,2011-07-09T14:00:00Z,25.4840,-81.1330,1.5,24.9,11111222 
ENP,ioos.station.NOAA.NDBC:LBRF1:1,2011-07-09T15:00:00Z,25.4840,-81.1330,1.5,25.3,11111222 
ENP,ioos.station.NOAA.NDBC:LBRF1:1,2011-07-09T16:00:00Z,25.4840,-81.1330,1.5,24.4,11111222 
ENP,ioos.station.NOAA.NDBC:LBRF1:1,2011-07-09T17:00:00Z,25.4840,-81.1330,1.5,22.4,11111222 
ENP,ioos.station.NOAA.NDBC:LBRF1:1,2011-07-09T18:00:00Z,25.4840,-81.1330,1.5,20.1,11111222 
ENP,ioos.station.NOAA.NDBC:LBRF1:1,2011-07-09T19:00:00Z,25.4840,-81.1330,1.5,19.5,11111222 
ENP,ioos.station.NOAA.NDBC:LBRF1:1,2011-07-09T20:00:00Z,25.4840,-81.1330,1.5,19.4,11111222 
ENP,ioos.station.NOAA.NDBC:LBRF1:1,2011-07-09T21:00:00Z,25.4840,-81.1330,1.5,18.3,11111222 
ENP,ioos.station.NOAA.NDBC:LBRF1:1,2011-07-09T22:00:00Z,25.4840,-81.1330,1.5,17.9,11111222 
ENP,ioos.station.NOAA.NDBC:LBRF1:1,2011-07-09T23:00:00Z,25.4840,-81.1330,1.5,17.3,11111222 
ENP,ioos.station.NOAA.NDBC:LBRF1:1,2011-07-10T00:00:00Z,25.4840,-81.1330,1.5,17.4,11111222 
ENP,ioos.station.NOAA.NDBC:LBRF1:1,2011-07-10T01:00:00Z,25.4840,-81.1330,1.5,18.0,11111222 
ENP,ioos.station.NOAA.NDBC:LBRF1:1,2011-07-10T02:00:00Z,25.4840,-81.1330,1.5,18.8,11111222 
ENP,ioos.station.NOAA.NDBC:LBRF1:1,2011-07-10T03:00:00Z,25.4840,-81.1330,1.5,20.5,11111222 
ENP,ioos.station.NOAA.NDBC:LBRF1:1,2011-07-10T04:00:00Z,25.4840,-81.1330,1.5,19.7,11111222 
ENP,ioos.station.NOAA.NDBC:LBRF1:1,2011-07-10T05:00:00Z,25.4840,-81.1330,1.5,19.7,11111222 
ENP,ioos.station.NOAA.NDBC:LBRF1:1,2011-07-10T06:00:00Z,25.4840,-81.1330,1.5,19.1,11111222 
ENP,ioos.station.NOAA.NDBC:LBRF1:1,2011-07-10T07:00:00Z,25.4840,-81.1330,1.5,18.4,11111222 
ENP,ioos.station.NOAA.NDBC:LBRF1:1,2011-07-10T08:00:00Z,25.4840,-81.1330,1.5,17.5,11111222 
ENP,ioos.station.NOAA.NDBC:LBRF1:1,2011-07-10T09:00:00Z,25.4840,-81.1330,1.5,17.0,11111222 
ENP,ioos.station.NOAA.NDBC:LBRF1:1,2011-07-10T10:00:00Z,25.4840,-81.1330,1.5,17.1,11111222 
ENP,ioos.station.NOAA.NDBC:LBRF1:1,2011-07-10T11:00:00Z,25.4840,-81.1330,1.5,17.1,11111222 
ENP,ioos.station.NOAA.NDBC:LBRF1:1,2011-07-10T12:00:00Z,25.4840,-81.1330,1.5,17.3,11111222 
ENP,ioos.station.NOAA.NDBC:LBRF1:1,2011-07-10T13:00:00Z,25.4840,-81.1330,1.5,18.6,11111222 
ENP,ioos.station.NOAA.NDBC:LBRF1:1,2011-07-10T14:00:00Z,25.4840,-81.1330,1.5,21.4,11111222 
ENP,ioos.station.NOAA.NDBC:LBRF1:1,2011-07-10T15:00:00Z,25.4840,-81.1330,1.5,24.9,11111222 
ENP,ioos.station.NOAA.NDBC:LBRF1:1,2011-07-10T16:00:00Z,25.4840,-81.1330,1.5,26.1,11111222 
ENP,ioos.station.NOAA.NDBC:LBRF1:1,2011-07-10T17:00:00Z,25.4840,-81.1330,1.5,24.3,11111222 
ENP,ioos.station.NOAA.NDBC:LBRF1:1,2011-07-10T18:00:00Z,25.4840,-81.1330,1.5,21.2,11111222 
ENP,ioos.station.NOAA.NDBC:LBRF1:1,2011-07-10T19:00:00Z,25.4840,-81.1330,1.5,19.0,11111222 
ENP,ioos.station.NOAA.NDBC:LBRF1:1,2011-07-10T20:00:00Z,25.4840,-81.1330,1.5,17.8,11111222 
ENP,ioos.station.NOAA.NDBC:LBRF1:1,2011-07-10T21:00:00Z,25.4840,-81.1330,1.5,17.5,11111222 
ENP,ioos.station.NOAA.NDBC:LBRF1:1,2011-07-10T22:00:00Z,25.4840,-81.1330,1.5,16.7,11111222 
ENP,ioos.station.NOAA.NDBC:LBRF1:1,2011-07-10T23:00:00Z,25.4840,-81.1330,1.5,16.0,11111222 
ENP,ioos.station.NOAA.NDBC:LBRF1:1,2011-07-11T00:00:00Z,25.4840,-81.1330,1.5,15.7,11111222 
ENP,ioos.station.NOAA.NDBC:LBRF1:1,2011-07-11T01:00:00Z,25.4840,-81.1330,1.5,15.7,11111222 
ENP,ioos.station.NOAA.NDBC:LBRF1:1,2011-07-11T02:00:00Z,25.4840,-81.1330,1.5,16.0,11111222 
ENP,ioos.station.NOAA.NDBC:LBRF1:1,2011-07-11T03:00:00Z,25.4840,-81.1330,1.5,16.9,11111222 
ENP,ioos.station.NOAA.NDBC:LBRF1:1,2011-07-11T04:00:00Z,25.4840,-81.1330,1.5,17.8,11111222 
ENP,ioos.station.NOAA.NDBC:LBRF1:1,2011-07-11T05:00:00Z,25.4840,-81.1330,1.5,19.1,11111222 
ENP,ioos.station.NOAA.NDBC:LBRF1:1,2011-07-11T06:00:00Z,25.4840,-81.1330,1.5,19.2,11111222 
ENP,ioos.station.NOAA.NDBC:LBRF1:1,2011-07-11T07:00:00Z,25.4840,-81.1330,1.5,17.6,11111222 
ENP,ioos.station.NOAA.NDBC:LBRF1:1,2011-07-11T08:00:00Z,25.4840,-81.1330,1.5,16.9,11111222 
ENP,ioos.station.NOAA.NDBC:LBRF1:1,2011-07-11T09:00:00Z,25.4840,-81.1330,1.5,16.2,11111222 
ENP,ioos.station.NOAA.NDBC:LBRF1:1,2011-07-11T10:00:00Z,25.4840,-81.1330,1.5,15.7,11111222 
ENP,ioos.station.NOAA.NDBC:LBRF1:1,2011-07-11T11:00:00Z,25.4840,-81.1330,1.5,15.7,11111222 
ENP,ioos.station.NOAA.NDBC:LBRF1:1,2011-07-11T12:00:00Z,25.4840,-81.1330,1.5,15.7,11111222 
ENP,ioos.station.NOAA.NDBC:LBRF1:1,2011-07-11T13:00:00Z,25.4840,-81.1330,1.5,15.8,11111222 
ENP,ioos.station.NOAA.NDBC:LBRF1:1,2011-07-11T14:00:00Z,25.4840,-81.1330,1.5,16.9,11111222 
ENP,ioos.station.NOAA.NDBC:LBRF1:1,2011-07-11T17:00:00Z,25.4840,-81.1330,1.5,26.8,11111222 
ENP,ioos.station.NOAA.NDBC:LBRF1:1,2011-07-11T18:00:00Z,25.4840,-81.1330,1.5,26.1,11111222 
ENP,ioos.station.NOAA.NDBC:LBRF1:1,2011-07-11T19:00:00Z,25.4840,-81.1330,1.5,23.6,11111222 
ENP,ioos.station.NOAA.NDBC:LBRF1:1,2011-07-11T20:00:00Z,25.4840,-81.1330,1.5,19.7,11111222 
ENP,ioos.station.NOAA.NDBC:LBRF1:1,2011-07-11T21:00:00Z,25.4840,-81.1330,1.5,16.7,11111222 
ENP,ioos.station.NOAA.NDBC:LBRF1:1,2011-07-11T22:00:00Z,25.4840,-81.1330,1.5,16.3,11111222 
ENP,ioos.station.NOAA.NDBC:LBRF1:1,2011-07-11T23:00:00Z,25.4840,-81.1330,1.5,15.5,11111222 